sat.trackr.live / text

‹ back to catalog

COSMOS 2475 (743)

NORAD 37869 · 2011-064C

PAYLOAD ACTIVE UNKNOWN

§ Identity

Operator
Country
CIS
Launch date
2011-11-04
Launch site
TYMSC
Launch vehicle
Mass (kg)
RCS (m²)
6.31

Purposes: nav

External: N2YO · Heavens-Above · Gunter

§ Orbital elements

Epoch: 2026-08-31T02:56:58.421760Z

Period
675.73 min
Inclination
65.3290°
Eccentricity
0.0024501
Mean motion
2.13101856 rev/d
Perigee alt
19,067.4 km
Apogee alt
19,192.4 km
Semi-major
25,508.0 km
B*
0.0000e+0
RAAN
70.4459°
Arg perigee
246.8157°
Mean anomaly
301.1425°
Rev number
11,536

§ Raw data

COSMOS 2475 (743)1 37869U 11064C   26243.12289840  .00000028  00000+0  00000+0 0  99942 37869  65.3290  70.4459 0024501 246.8157 301.1425  2.13101856115363

JSON: /api/v1/satellites/37869 · /tle

For live sub-satellite position, see the globe view (requires WebGL).

§ Visibility from observer

Set your observer location to see the next 7 days of passes ≥ 10°. The values pass through the URL so the page stays shareable.

No JS? Fill the form by hand. The geolocation button needs JavaScript.